CAPE
0 0 0 0 0 0 0 0 24 1 27 0 0 0 0 0 0 0 4 0 17 53 6 0 0 0 0 0 0 0 0 0 0 0 0 0 0 0 0 0 0 0 0 0
0 0 0 0 0 0 0 0 5 0 0 0 0 0 0 0 0 11 17 17 7 0 0 0 0 1 0 0 0 0 0 0 0 0 0 0 0 0 0 0 0 0 0 0
0 4 28 12 0 0 0 0 0 0 0 0 5 6 5 10 18 38 41 0 0 0 44 22 0 0 0 0 0 0 0 0 0 0 0 0 0 0 0 0 0 0 0 0
1 0 4 0 0 0 0 0 0 0 0 32 12 37 63 91 107 78 3 0 0 7 59 165 6 0 0 0 0 0 0 0 1 0 0 0 0 0 0 0 0 0 0 0
0 0 0 0 0 0 0 0 0 0 0 0 0 18 52 131 5 1 10 0 35 0 0 0 2 0 0 0 0 0 0 0 0 0 0 0 0 1 0 0 0 1 2 0
4 5 1 0 0 0 23 39 0 74 82 30 33 88 195 123 0 0 0 0 0 0 0 2 0 0 0 0 0 0 0 0 0 0 0 0 0 0 1 0 1 0 2 0
4 13 0 0 0 0 43 42 63 28 18 20 0 22 145 19 0 0 0 0 0 0 0 2 0 0 0 0 0 0 0 0 1 1 0 0 1 1 0 0 1 1 1 0
56 55 22 0 0 66 151 171 26 32 27 115 102 6 5 0 1 1 0 0 0 0 0 3 0 1 0 0 0 0 0 1 0 0 0 1 0 2 2 0 0 1 0 2
50 63 81 34 56 28 5 63 60 50 36 133 4 0 1 0 2 0 0 0 0 0 1 2 0 0 1 0 0 0 1 0 0 1 1 2 0 1 2 2 2 4 3 3
84 0 9 18 4 53 18 7 5 0 194 263 3 0 0 0 1 7 1 0 0 0 0 1 0 0 0 0 0 1 0 1 0 1 1 1 3 4 1 2 2 4 3 2
18 0 11 0 27 28 0 0 0 0 140 300 0 1 0 0 1 0 0 1 0 0 0 1 0 0 0 1 1 1 1 1 1 1 1 2 4 1 1 0 0 0 0 0
1 0 27 0 1 0 0 0 0 0 68 156 206 59 2 0 0 0 0 0 0 0 0 0 1 1 1 1 1 3 4 3 3 3 2 3 3 0 3 0 0 7 6 0
0 0 0 0 0 0 0 1 20 0 54 39 0 0 0 0 0 0 1 0 0 0 0 0 1 1 0 2 3 3 3 5 4 4 4 4 1 0 0 0 0 0 0 0
26 35 27 23 3 0 2 0 0 0 13 170 6 0 0 0 0 0 0 0 0 0 4 1 1 3 3 1 0 3 5 3 5 4 3 2 0 1 0 0 0 0 0 0
11 0 0 0 0 0 0 0 0 7 12 0 0 0 0 3 0 0 0 0 0 2 3 2 2 4 0 0 0 2 3 7 5 5 6 4 1 0 0 0 0 0 0 0
3 1 1 0 6 9 0 0 11 1 19 0 0 1 0 0 0 1 0 0 0 1 7 2 1 3 1 0 1 3 6 6 2 4 2 5 5 3 2 1 1 0 0 0
0 0 0 10 10 4 23 33 9 15 15 0 0 0 2 0 0 0 0 0 1 3 4 4 6 4 0 0 3 5 4 5 3 3 5 7 1 0 0 0 0 0 0 0
0 0 12 0 40 65 48 62 79 13 0 0 0 0 0 0 0 0 1 1 3 5 3 2 2 0 2 2 3 3 3 3 4 4 2 1 3 2 3 5 0 0 0 0
0 11 25 14 23 64 137 36 0 0 0 0 0 0 0 0 0 0 0 0 1 2 6 2 0 3 0 0 3 5 6 6 5 7 5 8 8 2 3 0 0 0 0 0
0 3 11 4 1 11 0 0 0 0 0 0 0 0 0 0 0 1 1 2 1 1 0 0 3 5 1 0 0 6 8 9 5 6 5 5 15 2 0 0 0 9 0 0
2 1 0 0 0 0 0 0 0 1 1 0 0 1 1 0 0 4 2 2 3 1 0 0 1 1 1 1 2 7 11 13 11 12 5 11 1 0 2 8 10 11 2 0
1 0 0 0 0 1 0 0 0 1 0 0 0 0 0 0 0 0 0 1 3 1 0 2 1 0 0 2 3 16 16 12 13 7 12 14 13 13 13 2 0 2 2 0
2 1 1 1 1 2 1 1 1 0 1 0 0 0 3 2 4 5 2 0 0 2 4 4 0 1 0 16 14 11 17 19 18 16 18 22 19 23 18 10 10 11 5 0
2 1 2 0 0 0 1 2 0 0 0 0 0 2 2 4 5 0 0 0 0 4 3 2 1 0 0 10 4 6 11 17 13 20 14 14 18 17 14 2 4 4 1 0
1 1 1 2 1 2 1 1 0 0 0 1 0 0 0 0 8 2 0 0 2 2 1 2 1 0 11 14 16 16 18 22 23 15 2 6 7 4 7 2 5 1 0 0
1 0 1 1 0 1 0 0 4 2 2 3 7 6 5 1 0 0 0 1 3 2 1 10 11 11 18 17 16 17 13 1 3 3 3 5 4 8 6 0 1 0 0 0
0 0 0 1 2 1 0 2 3 5 8 5 3 2 1 3 3 0 3 4 11 10 9 16 18 14 16 12 11 9 2 1 2 0 3 8 8 10 1 0 0 0 0 0
CIN
0 0 0 0 0 0 0 -3 -0 -5 -0 0 0 0 0 0 0 -0 -2 0 -6 -11 -11 0 0 -3 0 0 0 0 0 0 0 0 0 0 0 0 0 0 0 0 0 0
0 0 0 0 0 0 0 0 0 0 0 0 0 0 0 0 0 -2 -4 -7 -18 0 -1 0 0 -4 0 0 0 0 0 0 0 0 0 0 0 0 0 0 0 0 0 0
0 -1 -1 -0 0 0 0 0 0 0 0 0 -0 -1 -0 -4 -1 -3 -18 0 0 0 -28 -59 0 0 0 0 0 0 0 0 0 0 0 0 0 0 -0 0 0 0 0 0
0 0 -0 0 0 0 0 0 -0 0 -0 -1 -0 -3 -5 -10 -26 -32 -31 0 0 -133 -88 -36 -35 0 0 0 0 0 0 0 0 0 0 0 0 0 0 0 0 0 -0 0
0 0 0 0 0 0 0 0 0 0 -0 0 0 -2 -6 -119 -178 -13 -171 0 -183 0 0 -5 -28 0 0 0 0 0 0 0 0 0 0 0 0 0 0 0 0 0 -0 -0
0 -0 -1 0 0 0 -2 -1 -0 -2 -7 -65 -87 -16 -46 -25 -51 0 0 0 0 0 0 -2 0 0 0 0 0 0 0 0 0 0 0 0 0 0 0 0 0 0 -0 0
-0 0 0 0 0 -0 -0 -2 -25 -70 -40 -88 0 -62 -14 -49 0 0 0 0 0 0 0 -0 0 0 0 0 0 0 0 0 0 0 0 0 0 0 0 0 -0 -0 -0 -0
0 -0 -0 0 0 -0 -10 -15 -15 -31 -19 -17 -13 -57 -39 0 0 0 0 0 0 0 0 0 0 0 0 0 0 0 0 0 0 0 0 0 -0 0 0 -0 -0 -0 -0 -0
-0 0 -1 -1 -4 -24 -21 -4 -11 -13 -11 -1 -70 0 0 0 -0 -0 0 0 0 0 0 0 0 0 0 0 0 0 0 -0 0 0 0 0 -0 0 0 -0 -0 -0 -0 -0
-0 0 -6 -3 -2 -1 -3 -38 -0 0 -17 -19 -60 0 0 0 0 0 -0 0 0 0 -0 0 0 0 0 0 0 0 0 0 0 -0 0 0 0 0 -0 -0 -1 -0 -0 -0
-3 0 -1 -0 -1 -3 -3 0 0 0 -13 -15 0 0 -57 0 0 -0 0 -0 -0 -0 0 0 0 0 0 0 -0 0 0 0 -0 -0 -0 0 0 -0 -1 -0 0 -1 0 0
-0 0 -1 -0 -3 0 0 0 0 0 -37 -38 -3 -20 -44 0 0 -0 -1 -0 0 0 0 0 0 0 0 0 -0 0 0 0 0 0 0 0 0 0 -0 0 -2 -3 -3 0
-0 0 -0 0 0 0 0 0 -0 -0 -20 -50 -2 -0 0 0 0 0 -0 0 0 0 0 -0 0 0 0 0 0 0 0 0 0 0 0 0 0 0 0 0 0 0 0 -0
-1 -1 0 0 0 -0 -0 0 0 0 -12 -0 -3 0 0 0 0 -0 0 0 0 -0 0 0 0 0 0 0 0 0 0 0 0 0 -0 -0 -0 -0 -0 0 -0 -0 -0 0
-0 -1 0 0 0 0 0 0 0 0 0 0 0 0 0 0 -0 0 0 -0 -0 -0 0 0 0 0 0 0 -0 0 0 0 0 0 0 -0 -0 -0 0 0 0 -0 -0 0
-0 -11 -1 -2 -1 -0 0 0 -13 0 -11 0 0 -0 -0 0 -0 -0 0 0 -0 0 0 0 0 0 0 -0 0 0 0 0 0 0 -0 0 -0 -0 -0 -0 -1 0 0 0
0 0 -0 0 -0 -1 -12 -1 -0 -0 -40 0 0 0 0 -0 0 0 0 -3 -2 -0 -0 -0 0 0 0 0 0 0 0 0 0 0 0 -0 -0 -1 0 -0 0 0 -0 0
0 0 -4 -1 -50 -19 -4 -4 -20 -20 0 0 0 0 0 0 0 0 -1 -0 -0 0 -0 0 -0 0 0 0 0 0 0 0 0 -0 -0 -0 -0 -0 -0 -1 -0 0 -1 0
0 -1 -1 -2 -3 -4 -18 -52 0 0 0 0 0 -0 -0 -1 -0 -0 0 -0 -0 0 0 -0 0 0 -0 0 0 0 0 0 -0 0 0 -0 -0 -0 -0 0 0 -2 -0 0
-1 -2 -12 -9 -17 -9 0 0 0 0 0 -0 -0 0 0 0 -0 0 -0 0 0 0 0 -2 -0 -0 0 0 0 0 0 0 -0 -0 -0 -0 -0 -0 0 0 0 -0 -0 0
0 0 0 0 0 0 0 0 0 0 0 0 0 0 0 0 -0 -1 -0 0 -0 -0 0 -1 -0 -2 -3 -1 -1 -1 -0 -0 -0 -0 -1 -0 -1 -0 -1 -0 -0 -0 -0 0
0 0 0 0 0 0 0 0 0 0 0 0 -0 0 0 0 -0 -0 0 0 -0 -2 -2 -1 -3 -1 -4 -6 -1 -0 -0 -1 -0 -1 -1 -0 -0 -0 -0 -1 0 -1 -0 -0
0 0 0 0 0 0 0 0 -0 0 0 0 0 0 -0 -0 -0 0 0 0 -1 -1 -0 -0 0 -6 -3 -0 -0 -0 -0 -0 -0 -0 -0 -0 -1 -1 -1 -0 -0 -1 -1 -0
0 0 0 0 -0 0 0 0 0 0 -0 -0 -0 -4 -1 -0 -0 0 0 0 -3 0 0 0 0 0 0 -0 -1 -2 -0 0 -0 -0 -0 -1 -1 -2 -1 -3 -5 -5 -7 -4
0 0 -0 0 -0 -0 -0 0 0 0 -0 0 0 -0 -1 -9 -0 0 -2 0 -1 -1 -2 -0 -0 0 0 0 0 0 0 0 0 0 -0 -0 -0 -1 -2 -3 -1 -2 -2 0
-0 -1 -0 0 0 -2 -1 -0 -1 -1 -0 0 -0 -0 -1 0 0 0 0 -0 -1 -1 -0 0 0 0 0 0 0 0 0 -1 -0 -0 -1 -0 -1 -2 -2 -2 -4 -3 0 0
-1 -1 -6 -3 -3 -2 -4 -3 -4 -1 -0 -0 0 -0 -0 -0 0 -0 -1 -0 0 0 0 0 0 0 0 0 0 -0 -0 -1 -1 0 -2 -1 -1 -1 -4 -2 -7 0 0 0
Wind_Speed
12 13 13 15 18 20 19 18 16 18 20 22 19 17 16 16 16 14 11 9 8 8 4 3 6 6 3 4 8 9 11 10 10 9 10 10 9 8 7 9 9 8 8 7
6 10 12 17 23 23 22 22 21 21 22 19 20 21 19 18 20 12 9 8 9 8 7 5 3 4 6 5 7 9 11 10 12 13 13 13 11 8 6 9 9 9 9 8
15 11 10 15 19 22 21 20 19 19 20 20 20 20 18 18 14 13 7 9 9 10 8 4 4 0 6 5 5 6 9 11 11 13 13 13 11 10 9 11 8 7 9 9
10 8 13 15 19 19 21 22 20 21 18 21 19 14 16 10 11 12 10 8 8 8 8 8 0 4 3 5 5 6 10 12 12 11 10 11 9 7 8 9 9 7 10 10
6 8 13 23 17 14 16 17 19 20 20 20 20 16 12 13 11 6 6 6 5 6 8 8 4 1 3 3 8 8 9 11 13 15 14 14 14 11 8 11 10 8 10 11
10 12 10 17 13 13 15 13 17 15 11 15 19 10 4 12 5 6 6 7 7 8 8 9 3 4 7 6 8 9 9 11 11 10 11 10 9 8 7 10 9 8 11 10
13 12 12 21 21 19 15 9 11 13 16 9 4 9 3 2 9 6 6 6 6 7 7 5 4 6 6 7 8 9 10 11 11 10 10 9 8 8 9 9 9 9 10 8
12 14 18 7 15 16 9 8 14 15 11 10 5 8 2 8 5 6 6 5 3 5 5 3 5 6 6 6 8 10 12 11 12 13 9 8 10 9 9 9 9 9 9 8
14 11 11 13 16 2 5 15 13 10 19 11 5 5 8 4 3 3 5 6 2 5 4 5 5 6 7 7 10 12 12 13 12 12 10 10 10 10 9 9 7 8 7 7
13 17 18 19 16 15 10 8 16 16 16 14 7 9 7 1 1 1 5 6 4 3 5 3 2 4 6 10 11 12 14 13 12 12 11 8 7 7 7 7 8 8 7 7
12 17 17 19 17 11 14 14 16 18 15 19 11 11 11 7 5 4 5 4 3 4 3 3 3 5 7 9 12 12 12 11 11 9 11 10 5 5 6 6 7 7 7 8
14 15 14 16 14 18 18 18 17 19 19 16 14 7 4 5 3 3 2 3 3 5 5 4 4 5 7 9 11 12 11 9 8 8 7 7 7 5 11 12 11 7 13 11
18 19 19 21 18 21 21 18 17 17 17 17 3 9 5 5 4 5 2 6 3 3 4 4 4 6 6 8 9 11 11 11 9 10 9 8 8 7 7 10 19 19 17 15
16 14 17 20 16 15 16 18 16 18 17 16 10 7 4 6 7 4 5 3 5 4 4 4 4 4 6 4 5 8 9 13 9 8 7 7 7 7 6 6 7 7 13 14
20 19 19 18 19 20 19 14 16 20 13 5 6 5 5 4 6 7 5 5 5 6 5 4 4 5 7 6 5 9 9 7 7 7 6 7 7 8 7 6 6 7 7 7
15 11 15 17 17 15 11 18 17 17 12 9 7 7 8 9 7 6 6 4 4 4 4 4 4 6 6 7 8 8 7 9 8 6 7 7 7 8 8 8 8 7 7 7
8 17 14 15 17 14 18 15 7 3 12 9 12 7 7 8 8 7 6 4 5 6 4 4 7 6 6 8 8 6 6 7 9 7 7 6 6 7 6 6 7 7 7 9
19 17 13 20 17 13 10 3 9 11 9 12 11 8 7 6 7 5 4 6 6 6 6 6 6 8 7 7 7 6 6 6 6 6 6 6 6 6 6 5 6 7 7 10
19 15 11 3 2 3 9 9 10 11 11 11 10 8 6 5 7 5 6 6 6 7 5 6 6 7 7 7 7 5 6 6 6 5 6 7 5 5 5 5 5 5 7 8
6 8 8 9 11 9 10 10 12 10 9 10 11 10 7 6 6 6 6 8 7 6 7 7 5 7 8 7 6 5 6 6 6 5 5 5 5 6 5 6 6 5 7 7
10 10 10 10 12 10 8 7 10 10 8 9 9 8 7 7 6 5 6 5 4 6 7 6 5 5 5 6 5 5 5 6 6 6 6 5 6 5 6 6 6 5 8 7
6 7 8 8 9 9 6 6 8 9 10 9 9 8 9 8 7 5 3 7 5 7 5 3 4 6 5 6 5 5 5 5 6 6 5 6 6 6 6 6 6 6 6 7
5 5 6 6 7 7 7 7 7 9 10 8 9 9 7 6 4 5 6 6 5 4 3 3 7 8 10 3 5 5 5 5 6 6 5 5 5 5 5 6 5 5 6 6
4 4 5 6 6 8 8 7 8 8 9 9 8 3 5 6 6 6 7 9 9 5 5 5 7 8 7 4 5 5 5 5 5 5 5 5 4 4 5 5 4 4 4 5
5 5 4 6 6 5 7 7 7 8 9 8 7 4 7 4 4 5 6 6 7 5 5 6 7 6 3 4 5 5 5 4 5 5 5 4 4 3 4 4 3 4 3 4
6 5 4 2 4 5 5 5 5 5 6 6 4 5 5 6 6 7 5 6 5 6 4 4 4 3 4 4 4 4 4 5 5 4 4 4 4 3 4 3 3 3 3 3
3 3 3 3 2 3 3 2 4 5 5 5 5 4 4 5 6 6 6 5 5 5 4 3 4 4 4 4 4 5 5 4 4 3 3 4 3 3 4 3 3 3 3 3
Wind_Direction
280 289 306 292 276 266 259 265 256 271 273 276 291 303 311 316 306 296 301 319 340 38 41 358 331 338 299 194 183 168 172 178 165 133 137 135 127 137 148 142 141 121 114 102
265 263 263 264 268 273 273 275 280 283 285 294 301 301 294 285 277 289 314 358 17 5 6 356 310 299 283 230 194 177 181 170 141 141 146 143 140 154 156 112 104 108 122 128
261 253 246 253 253 258 269 270 267 264 264 268 262 262 266 269 288 293 39 23 7 355 355 29 330 232 233 213 179 169 140 136 142 144 143 141 135 133 133 122 123 135 121 92
272 282 254 257 265 270 273 274 277 278 269 262 276 271 271 342 7 33 36 15 4 346 331 327 161 280 264 159 152 136 141 140 137 135 134 122 123 137 149 138 139 134 114 116
241 237 273 279 276 291 295 293 288 290 293 290 294 285 277 81 72 36 3 22 12 344 331 319 323 360 148 60 111 132 141 145 142 141 142 153 162 161 142 129 128 121 127 124
240 256 252 261 284 295 309 289 298 303 357 349 344 291 31 86 107 74 20 17 359 346 345 322 355 128 119 134 124 135 147 141 133 139 140 138 146 140 126 116 113 103 110 115
232 248 267 274 282 274 274 304 343 341 328 352 5 303 191 137 51 43 15 357 5 20 357 351 67 97 118 137 140 139 132 127 129 127 127 125 116 115 116 119 115 111 118 124
228 247 255 254 268 267 352 349 325 319 314 312 303 335 90 99 80 34 360 333 16 62 0 2 125 129 133 143 130 130 131 126 124 124 127 125 127 127 124 128 125 133 131 129
249 255 244 260 295 296 245 304 321 326 301 286 68 17 294 15 54 58 298 300 53 59 23 18 132 150 145 138 139 134 129 127 128 126 131 138 138 139 137 140 148 146 148 138
261 263 281 282 285 292 316 302 306 317 311 330 161 191 245 184 52 22 296 326 8 36 42 62 88 145 141 146 143 135 135 137 136 138 135 141 148 148 148 157 159 162 155 147
293 284 279 281 288 315 307 323 312 314 302 311 168 191 196 188 179 200 236 286 2 71 79 101 112 129 139 143 139 139 137 141 141 139 143 139 133 145 167 170 172 169 165 155
272 277 285 291 303 301 308 307 302 300 296 313 281 168 148 77 101 153 100 328 12 105 132 139 140 130 136 141 146 143 141 141 141 139 137 139 150 116 98 92 89 157 153 152
274 285 288 287 290 292 286 290 302 297 290 289 287 311 107 122 106 89 114 109 87 74 129 142 134 143 139 150 153 152 147 144 143 146 148 158 142 127 110 80 88 93 94 110
272 284 280 261 261 268 280 291 297 289 281 273 117 116 119 149 134 120 83 88 113 131 132 123 125 150 131 135 143 148 142 146 146 149 148 140 140 139 132 128 116 108 107 121
260 263 268 275 276 275 273 275 287 279 273 178 96 103 121 131 97 98 91 103 104 107 116 131 131 132 120 118 126 127 131 147 138 145 147 141 141 137 139 138 131 129 124 116
258 309 312 302 289 277 273 262 263 233 196 118 124 99 76 80 97 92 93 104 115 110 120 121 122 133 129 133 130 134 144 141 140 142 136 145 147 147 151 150 151 150 151 142
262 252 256 254 250 244 247 243 258 284 113 105 97 120 131 111 100 90 77 67 82 94 108 119 118 118 116 127 132 137 136 136 137 135 150 150 144 149 150 154 159 160 163 158
246 267 236 209 223 214 216 115 64 94 93 96 89 86 77 79 106 98 109 114 102 91 92 105 114 123 121 120 120 117 122 125 128 135 131 131 141 149 158 165 162 166 151 159
241 253 276 227 286 16 87 84 88 95 98 104 109 114 114 103 95 123 134 118 108 108 101 107 112 122 123 107 114 123 130 133 135 135 140 145 145 150 157 154 158 137 150 154
310 315 339 53 48 79 87 100 103 99 109 122 123 120 111 103 128 143 107 77 57 104 118 130 136 124 119 123 129 125 131 133 134 134 138 146 145 136 141 151 154 159 144 153
51 56 67 74 78 79 80 97 113 119 119 129 124 121 121 134 143 128 133 110 90 109 125 144 123 123 132 140 134 130 137 139 145 143 145 146 144 153 162 160 165 169 157 166
48 71 81 87 87 90 87 95 107 120 127 122 110 118 136 138 128 91 56 111 118 129 141 128 128 137 145 155 133 135 145 147 140 143 160 159 169 177 173 165 171 177 167 163
65 67 79 83 95 102 102 102 122 131 122 122 138 152 154 156 138 138 117 110 125 133 130 123 137 134 154 132 132 138 148 152 155 157 172 171 175 177 167 162 169 168 164 165
106 90 89 104 123 126 118 120 124 123 122 129 138 132 134 109 100 80 81 113 116 112 104 121 132 144 157 152 147 153 154 157 155 161 161 165 165 160 153 155 155 152 152 153
123 126 143 183 165 113 129 126 130 135 134 121 138 137 91 67 102 102 94 102 121 110 110 126 137 148 187 140 154 159 166 164 151 143 143 140 140 134 126 123 124 133 128 142
163 168 171 99 114 142 141 172 142 148 128 133 124 97 91 98 105 107 117 137 122 119 121 140 151 166 135 137 139 135 122 113 120 124 133 137 133 128 126 121 122 131 124 122
113 102 111 112 115 127 136 126 134 131 128 139 128 120 118 119 119 121 130 128 130 124 137 144 141 132 124 124 119 111 114 119 131 134 124 121 127 122 117 118 111 109 102 102